STARLINK-35504

Last updated on Sun Dec 07 2025 00:02:05 GMT+0000 (Coordinated Universal Time)

1 66325U 25253G 25340.58335648 .00108952 00000+0 25832-2 0 9991 2 66325 43.0008 21.0563 0001355 262.1929 95.6576 15.40643038 5941
UTC large
Height (km)
Speed (km/s)
/
Latitude / Longitude
Inclination (degrees)
Orbital Period (minutes)
Azimuth
Elevation
Range (km)
Doppler Factor

Next 0 passes for location: London (51.5072 / 0.1276)

Sorry there are no passes over London.